Location: Grossmotten
(48.5500°N, 15.3833°E)
Time: 08:06:33
(UTC+00:00)

Cosmos 1459 Rocket - Pass Details

Date: 15 November 2019
Orbit: 938 x 999 km, 83.0° (Epoch: 12 December)

Event Time Altitude Azimuth Distance (km) Brightness Sun altitude
Rises 05:11:40 0° 212° (SSW) 3,628 6.8 -9.1°
Reaches altitude 10° 05:14:19 10° 220° (SW) 2,695 6.1 -8.7°
Maximum altitude 05:20:03 39° 289° (WNW) 1,421 4.4 -7.8°
Drops below altitude 10° 05:25:55 10° 357° (N) 2,752 6.1 -6.9°
Sets 05:28:40 0° 5° (N) 3,712 6.9 -6.5°
